Salida, CO

5:38 PM MDT on April 19, 2018 (GMT -0600)
Salida

Weather History for KANK - June, 2013

Change the Weather History Date:

Thursday, June 20, 2013

  Actual Average (KGUC) Record (KGUC)
Temperature  
Mean Temperature 68 °F -  
Max Temperature 87 °F 73 °F 91 °F (2016)
Min Temperature 48 °F 38 °F 32 °F (2014)
Cooling Degree Days 2    
Growing Degree Days 18 (Base 50)    
Moisture  
Dew Point 11 °F    
Average Humidity 12    
Maximum Humidity 24    
Minimum Humidity 4    
Precipitation  
Precipitation 0.00 in - - ()
Sea Level Pressure  
Sea Level Pressure 30.14 in    
Wind  
Wind Speed 8 mph (WSW)    
Max Wind Speed 21 mph    
Max Gust Speed 36 mph    
Visibility 10 miles    
Events      
Averages and records for this station are not official NWS values.
T = Trace of Precipitation, MM = Missing Value Source: NWS Daily Summary

Daily Weather History Graph

Daily Weather History Graph

Search for Another Location

Airport or City:

Astronomy

Jun. 20, 2013 Rise Set
Actual Time 5:40 AM MDT 8:31 PM MDT
Civil Twilight 5:08 AM MDT 9:03 PM MDT
Nautical Twilight 4:28 AM MDT 9:43 PM MDT
Astronomical Twilight 3:42 AM MDT 10:29 PM MDT
Moon 5:38 PM MDT (6/20) 3:06 AM MDT (6/20)
Length of Visible Light 15h 55m
Length of Day
14h 51m
Waxing Gibbous, 89% of the Moon is Illuminated
Jun 20
Waxing Gibbous
Jun 23
Full
Jun 29
Last Quarter
Jul 8
New
Jul 15
First Quarter

Hourly Weather History & Observations

Time (MDT) Temp. Dew Point Humidity Pressure Visibility Wind Dir Wind Speed Gust Speed Precip Events Conditions
12:15 AM 60.8 °F 10.8 °F 14% 30.12 in 10.0 mi West 8.1 mph - N/A   Clear
12:35 AM 57.7 °F 13.3 °F 17% 30.12 in 10.0 mi WNW 8.1 mph - N/A   Clear
12:55 AM 58.3 °F 12.0 °F 16% 30.12 in 10.0 mi West 8.1 mph - N/A   Clear
1:15 AM 58.1 °F 10.9 °F 16% 30.12 in 10.0 mi West 4.6 mph - N/A   Clear
1:35 AM 56.5 °F 12.6 °F 18% 30.12 in 10.0 mi WNW 5.8 mph - N/A   Clear
1:55 AM 58.1 °F 8.6 °F 14% 30.12 in 10.0 mi West 4.6 mph - N/A   Clear
2:15 AM 58.8 °F 8.1 °F 13% 30.12 in 10.0 mi NW 5.8 mph - N/A   Clear
2:35 AM 58.1 °F 8.6 °F 14% 30.12 in 10.0 mi NW 4.6 mph - N/A   Clear
2:55 AM 58.3 °F 8.2 °F 14% 30.12 in 10.0 mi NNW 6.9 mph - N/A   Clear
3:15 AM 58.1 °F 7.5 °F 13% 30.12 in 10.0 mi NW 5.8 mph - N/A   Clear
3:35 AM 56.7 °F 7.5 °F 14% 30.12 in 10.0 mi WNW 6.9 mph - N/A   Clear
3:55 AM 56.7 °F 7.5 °F 14% 30.12 in 10.0 mi NW 3.5 mph - N/A   Clear
4:15 AM 55.6 °F 7.9 °F 15% 30.12 in 10.0 mi NW 3.5 mph - N/A   Clear
4:35 AM 54.7 °F 8.2 °F 16% 30.12 in 10.0 mi NNW 8.1 mph - N/A   Clear
4:55 AM 53.4 °F 10.6 °F 18% 30.14 in 10.0 mi NW 5.8 mph - N/A   Clear
5:15 AM 52.0 °F 11.3 °F 20% 30.14 in 10.0 mi NW 3.5 mph - N/A   Clear
5:35 AM 48.4 °F 11.5 °F 23% 30.15 in 10.0 mi East 3.5 mph - N/A   Clear
5:55 AM 50.4 °F 12.6 °F 22% 30.17 in 10.0 mi NW 8.1 mph - N/A   Clear
6:15 AM 49.8 °F 12.4 °F 22% 30.17 in 10.0 mi North 4.6 mph - N/A   Clear
6:35 AM 50.5 °F 14.0 °F 23% 30.18 in 10.0 mi Calm Calm - N/A   Clear
6:55 AM 51.4 °F 14.5 °F 23% 30.19 in 10.0 mi Calm Calm - N/A   Clear
7:15 AM 54.7 °F 13.8 °F 20% 30.19 in 10.0 mi Calm Calm - N/A   Clear
7:35 AM 56.5 °F 20.3 °F 24% 30.20 in 10.0 mi Calm Calm - N/A   Clear
7:55 AM 58.5 °F 17.4 °F 20% 30.20 in 10.0 mi SE 3.5 mph - N/A   Clear
8:15 AM 62.8 °F 19.6 °F 19% 30.20 in 10.0 mi NE 3.5 mph - N/A   Clear
8:35 AM 64.8 °F 13.6 °F 14% 30.20 in 10.0 mi NNE 3.5 mph - N/A   Clear
8:55 AM 68.2 °F 13.6 °F 12% 30.20 in 10.0 mi Calm Calm - N/A   Clear
9:15 AM 70.5 °F 12.4 °F 11% 30.20 in 10.0 mi SSE 10.4 mph 18.4 mph N/A   Clear
9:35 AM 72.5 °F 9.7 °F 9% 30.20 in 10.0 mi South 15.0 mph 24.2 mph N/A   Clear
9:55 AM 73.4 °F 10.0 °F 9% 30.19 in 10.0 mi South 13.8 mph 21.9 mph N/A   Clear
10:15 AM 74.8 °F 11.3 °F 9% 30.19 in 10.0 mi South 16.1 mph 23.0 mph N/A   Clear
10:35 AM 76.1 °F 11.8 °F 9% 30.19 in 10.0 mi South 11.5 mph 20.7 mph N/A   Clear
10:55 AM 76.8 °F 11.1 °F 8% 30.19 in 10.0 mi SSE 13.8 mph 24.2 mph N/A   Clear
11:15 AM 77.0 °F 10.0 °F 8% 30.18 in 10.0 mi SSE 12.7 mph 24.2 mph N/A   Clear
11:35 AM 77.7 °F 9.0 °F 7% 30.17 in 10.0 mi SSE 6.9 mph 27.6 mph N/A   Clear
11:55 AM 80.2 °F 10.4 °F 7% 30.17 in 10.0 mi SSE 15.0 mph 21.9 mph N/A   Clear
12:15 PM 79.9 °F 10.8 °F 7% 30.16 in 10.0 mi SSE 17.3 mph 27.6 mph N/A   Clear
12:35 PM 80.2 °F 12.4 °F 8% 30.15 in 10.0 mi SSE 17.3 mph 33.4 mph N/A   Clear
12:55 PM 80.6 °F 11.3 °F 7% 30.15 in 10.0 mi SE 20.7 mph 33.4 mph N/A   Clear
1:15 PM 81.5 °F 9.1 °F 6% 30.14 in 10.0 mi SSE 19.6 mph 35.7 mph N/A   Clear
1:35 PM 83.1 °F 8.1 °F 6% 30.14 in 10.0 mi South 15.0 mph 31.1 mph N/A   Clear
1:55 PM 83.3 °F 8.8 °F 6% 30.12 in 10.0 mi SE 16.1 mph 31.1 mph N/A   Clear
2:15 PM 84.2 °F 6.1 °F 5% 30.11 in 10.0 mi SSE 17.3 mph 25.3 mph N/A   Clear
2:35 PM 84.9 °F 6.1 °F 5% 30.10 in 10.0 mi SSE 16.1 mph 28.8 mph N/A   Clear
2:55 PM 84.2 °F 2.7 °F 4% 30.09 in 10.0 mi SSE 16.1 mph 33.4 mph N/A   Clear
3:15 PM 84.0 °F 3.4 °F 5% 30.09 in 7.0 mi SSE 17.3 mph 28.8 mph N/A   Scattered Clouds
3:35 PM 86.2 °F 6.1 °F 5% 30.09 in 10.0 mi SSW 16.1 mph 24.2 mph N/A   Scattered Clouds
3:55 PM 87.4 °F 7.0 °F 5% 30.09 in 10.0 mi SSW 12.7 mph 19.6 mph N/A   Clear
4:15 PM 86.5 °F 8.4 °F 5% 30.09 in 7.0 mi SSW 8.1 mph 24.2 mph N/A   Clear
4:35 PM 86.0 °F 10.9 °F 6% 30.09 in 10.0 mi WSW 6.9 mph - N/A   Scattered Clouds
4:55 PM 83.8 °F 5.2 °F 5% 30.08 in 2.5 mi South 6.9 mph 19.6 mph N/A   Scattered Clouds
5:15 PM 84.0 °F 5.2 °F 5% 30.09 in 3.0 mi South 10.4 mph 19.6 mph N/A   Overcast
5:35 PM 84.7 °F 6.6 °F 5% 30.09 in 3.0 mi SSW 15.0 mph 25.3 mph N/A   Overcast
5:55 PM 86.2 °F 15.6 °F 7% 30.09 in 7.0 mi SW 12.7 mph 23.0 mph N/A   Mostly Cloudy
6:15 PM 85.6 °F 15.3 °F 7% 30.09 in 10.0 mi West 12.7 mph 17.3 mph N/A   Clear
6:35 PM 85.3 °F 14.0 °F 7% 30.09 in 10.0 mi West 15.0 mph 18.4 mph N/A   Clear
6:55 PM 83.5 °F 14.7 °F 8% 30.10 in 10.0 mi West 16.1 mph - N/A   Clear
7:15 PM 81.7 °F 17.1 °F 9% 30.10 in 10.0 mi WSW 10.4 mph 18.4 mph N/A   Clear
7:35 PM 81.0 °F 16.5 °F 9% 30.11 in 10.0 mi West 9.2 mph 18.4 mph N/A   Clear
7:55 PM 77.4 °F 15.6 °F 10% 30.12 in 10.0 mi West 9.2 mph - N/A   Clear
8:15 PM 74.8 °F 16.2 °F 11% 30.12 in 10.0 mi WSW 9.2 mph - N/A   Clear
8:35 PM 73.4 °F 13.6 °F 10% 30.13 in 10.0 mi SW 5.8 mph - N/A   Clear
8:55 PM 70.2 °F 15.3 °F 12% 30.14 in 10.0 mi West 5.8 mph - N/A   Clear
9:15 PM 69.8 °F 14.4 °F 12% 30.15 in 10.0 mi West 6.9 mph - N/A   Clear
9:35 PM 68.2 °F 14.9 °F 13% 30.15 in 10.0 mi West 9.2 mph - N/A   Clear
9:55 PM 68.9 °F 13.8 °F 12% 30.17 in 10.0 mi West 9.2 mph - N/A   Clear
10:15 PM 66.0 °F 15.1 °F 14% 30.17 in 10.0 mi West 8.1 mph - N/A   Clear
10:35 PM 66.0 °F 15.1 °F 14% 30.18 in 10.0 mi West 9.2 mph - N/A   Clear
10:55 PM 65.1 °F 13.6 °F 14% 30.19 in 10.0 mi SW 5.8 mph - N/A   Clear
11:15 PM 66.0 °F 12.4 °F 12% 30.19 in 10.0 mi West 6.9 mph - N/A   Clear
11:35 PM 62.8 °F 16.5 °F 17% 30.19 in 10.0 mi WSW 5.8 mph - N/A   Clear
11:55 PM 62.6 °F 16.2 °F 17% 30.19 in 10.0 mi WSW 8.1 mph - N/A   Clear